Location: Tamazert
(32.6352°N, 5.2072°W)
Time: 04:37:21
(UTC+00:00)

Vanguard 2 - Pass Details

Date: 12 October 2022
Orbit: 553 x 2933 km, 32.9° (Epoch: 26 November)

Event Time Altitude Azimuth Distance (km) Brightness Sun altitude
Rises 13:16:47 0° 276° (W) 4,119 11.4 46.6°
Reaches altitude 10° 13:19:07 10° 276° (W) 3,399 11.1 46.4°
Maximum altitude 13:28:14 88° 189° (S) 1,917 10.4 45.5°
Drops below altitude 10° 13:43:31 10° 101° (E) 5,391 11.8 43.8°
Sets 13:48:15 0° 101° (E) 6,606 12.1 43.2°
